Retour au catalogue

COSMOS 2491 DEB

LostPO
NORAD 45108·DEBRIS·🇷🇺 Russia

Lancé Dec 25, 2013 depuis Plesetsk Cosmodrome

Loading…

Prochains Passages (prochaines 24 heures)

TLE

PériméSource: Space-Track

Époque: Aug 4, 2020, 06:39 UTC

1 45108U 13076X   20217.27709459 -.00002938  00000-0 -25933-1 0  9997
2 45108  82.4909  68.9853 0062004 107.2343 253.5526 12.27058637 25166

Suivez COSMOS 2491 DEB en temps réel avec AllMySat

Download on the App Store